Regional Weather Roundup
Issued by NWS Newport/Morehead, NC

Current Version | Previous Version | Text Only | Print | Product List | Glossary Off
Versions: 1 2 3 4 5 6 7 8 9 10 11 12 13 14 15 16 17 18 19 20 21 22 23 24 25 26 27 28 29 30 31 32 33 34 35 36 37 38 39 40 41 42 43 44 45 46 47 48 49 50
000 ASUS42 KMHX 251025 RWRMHX WEATHER ROUNDUP FOR EASTERN NORTH CAROLINA NATIONAL WEATHER SERVICE NEWPORT/MOREHEAD CITY NC 600 AM EDT WED MAY 25 2016 NOTE: "FAIR" INDICATES FEW OR NO CLOUDS BELOW 12,000 FEET WITH NO SIGNIFICANT WEATHER AND/OR OBSTRUCTIONS TO VISIBILITY NCZ015>017-031-032-045>047-102-103-251100- NORTH COAST CITY SKY/WX TMP DP RH WIND PRES REMARKS EDENTON PTCLDY N/A N/A N/A W6 30.18R ELIZABETH CITY CLEAR 62 58 86 SW7 30.16R KITTY HAWK SUNNY 65 59 80 CALM 30.15S MANTEO CLEAR 64 61 88 W5 30.17S $$ NCZ045>047-081-094-103-104-251100- CENTRAL COAST CITY SKY/WX TMP DP RH WIND PRES REMARKS FRISCO CLEAR 68 62 81 W7 30.18R $$ NCZ095-097-098-100-101-251100- SOUTHERN COAST CITY SKY/WX TMP DP RH WIND PRES REMARKS BEAUFORT CLEAR 65 58 78 W3 30.20R CEDAR ISLAND NOT AVBL JACKSONVILLE CLEAR 60 57 89 W7 30.19R PINEY ISLAND SUNNY N/A N/A N/A SW6 30.19R WILMINGTON PTCLDY 60 58 92 CALM 30.20R $$ NCZ011>013-027>030-043-044-078>080-089-090>093-098-251100- COASTAL PLAIN CITY SKY/WX TMP DP RH WIND PRES REMARKS AHOSKIE CLEAR 58 55 92 CALM 30.17R CLINTON CLEAR 58 58 99 CALM 30.20R ELIZABETHTOWN CLEAR 61 58 91 CALM 30.20R GOLDSBORO CLEAR 61 61 100 SW5 30.17S GREENVILLE CLEAR 59 59 100 CALM 30.19S HAVELOCK CLEAR 57 54 89 CALM 30.20R KENANSVILLE CLEAR 56 55 96 CALM 30.22R KINSTON CLEAR 59 56 92 SW3 30.20R NEW BERN CLEAR 60 56 86 CALM 30.20R RICHLANDS CLEAR 55 54 96 CALM 30.21R ROCKY MOUNT PTCLDY 58 56 93 S5 30.17S WASHINGTON CLEAR 59 56 89 W3 30.18S WHITEVILLE CLEAR 59 57 93 CALM 30.20R $$ AMZ130-135-150-152-154-156-158-170-250-252-270-ANZ085-086-088-633-658-670-251100- MARINE OBSERVATIONS STATION/POSITION TIME TEMP WIND PRES WAVE SWELL AIR SEA DIR/SP/G HT/PER HT/PER (UTC) (F) (DEG/KT/KT) (MB) (FT/S) (FT/S) CHESAPEAKE LIGHT 1000 67 250/ 16/ 17 1020.8 64 E VA BEACH 0950 61 56 250/ 10/ 12 1020.2 3/ 6 3/ 6 DUCK 1000 67 61 250/ 9/ 12 1020.5 2 E DUCK 0911 62 N/A 2/ 9 OREGON INLET 1000 67 69 250/ 8/ 12 1021.2 13E OREGON INLT 1000 63 N/A 3/ 9 2/ 9 HATTERAS CG 1000 69 68 270/ 12/ 13 1021.5 DIAMOND BUOY 0950 67 67 270/ 8/ 8 1022.2 3/ 5 3/ 5 CAPE LOOKOUT 1000 68 270/ 8/ 9 1022.3 BEAUFORT LAB 1000 67 68 260/ 2/ 4 1021.8 30 SE NEW RVR IN 0925 73 N/A 3/ 4 27 SE WRIGHTSVLE 1008 73 72 280/ 10/ 12 1022.3 5 SE WRIGHTSVLE 1008 70 71 270/ 6/ 8 1023.3 225 S CAPE HAT 0950 73 78 50/ 4/ 6 1022.8 4/ 8 3/ 8 41 SE CHARLESTON 0950 75 75 220/ 2/ 2 1022.3 2/ 9 2/ 9 $$

USA.gov is the U.S. government's official web portal to all federal, state and local government web resources and services.